Location: Wilhelmshaven
(53.5279°N, 8.1063°E)
Time: 22:51:16
(UTC+02:00)

ISS - Pass Details

Date: 10 July 2022
Orbit: 412 x 420 km, 51.6° (Epoch: 19 August)

Event Time Altitude Azimuth Distance (km) Brightness Sun altitude
Rises 04:02:56 0° 274° (W) 2,363 -0.2 -7.6°
Reaches altitude 10° 04:05:03 10° 270° (W) 1,500 -1.3 -7.4°
Maximum altitude 04:08:21 53° 192° (SSW) 522 -3.6 -7.1°
Drops below altitude 10° 04:11:39 10° 115° (ESE) 1,503 -0.8 -6.8°
Sets 04:13:46 0° 110° (ESE) 2,367 0.3 -6.6°
